Wetbulb
53.48 53.04 52.55 51.89 51.30 50.70 49.93 48.38 47.66 46.87 46.13 45.16 44.56 43.62 42.90 42.87 43.15 40.39 37.23 39.41 34.13 27.81 26.93 27.78 28.19 22.53 23.44 22.51 15.77 19.73 19.31 18.40 17.11 11.39 11.51 8.76 6.40 7.96 5.88 12.26 7.65 0.61 2.54 5.07 7.57 1.56 0.72 17.36 16.12 7.86 12.94 17.15 17.25 17.37
53.44 53.04 52.47 51.71 51.02 50.41 49.79 48.13 47.85 46.78 46.24 45.51 44.78 44.11 43.26 43.13 43.72 41.62 35.82 38.48 38.13 30.64 28.88 31.17 31.62 31.43 29.00 27.83 22.69 22.64 17.64 17.30 19.17 13.10 13.49 12.15 10.75 10.01 5.32 5.07 13.82 0.77 5.11 4.38 7.76 9.03 16.84 17.22 14.91 18.84 18.64 16.38 17.32 19.32
53.28 52.96 52.32 51.53 50.82 50.29 49.67 48.00 47.48 46.40 46.05 45.31 44.97 44.50 43.64 43.27 43.99 41.91 36.66 36.31 34.45 28.96 28.44 25.91 24.74 29.16 32.72 31.31 32.21 21.66 23.94 20.73 18.63 18.24 13.76 13.15 6.33 14.00 4.65 5.14 6.72 9.16 11.24 5.82 9.02 13.87 12.20 15.82 17.15 18.52 18.16 17.39 20.26 22.05
52.88 52.65 52.07 51.36 50.64 50.03 49.46 48.33 47.09 45.90 45.30 45.16 45.00 44.60 43.65 43.21 43.44 40.65 36.01 36.38 33.33 28.37 20.67 22.02 30.53 26.00 29.64 31.22 30.89 30.18 28.46 24.15 20.72 21.20 18.15 12.24 9.20 15.27 8.27 8.97 6.40 8.86 9.20 9.62 9.17 13.05 13.19 16.46 15.91 16.43 17.07 19.51 19.81 22.51
52.57 52.34 51.72 51.13 50.37 49.67 48.94 48.18 45.76 45.85 45.46 44.79 44.97 44.42 43.62 43.39 41.19 37.71 35.94 35.69 35.03 28.06 21.96 22.34 26.00 25.97 28.05 28.92 28.65 26.18 20.94 23.92 20.38 20.42 14.99 12.59 16.61 12.08 11.20 7.40 2.86 9.77 5.59 3.74 5.02 11.22 8.83 11.01 15.40 16.95 17.86 17.75 21.65 22.55
52.41 52.01 51.42 50.72 50.11 49.46 48.37 46.64 45.68 45.50 44.91 44.84 44.69 43.77 43.65 41.79 39.96 35.17 29.97 35.56 35.50 33.30 22.63 17.72 24.80 21.90 24.04 25.41 20.63 18.04 23.71 19.86 23.84 20.45 15.85 12.64 3.76 8.66 3.27 5.13 4.80 8.30 10.52 11.66 7.25 14.18 13.85 15.03 16.69 19.50 17.44 20.81 22.04 22.42
52.10 51.71 51.17 50.42 49.69 48.75 47.55 46.12 45.41 45.32 44.67 44.78 43.74 43.25 42.03 39.74 36.67 32.31 30.38 33.65 36.70 33.03 23.15 16.76 18.53 22.58 21.99 21.75 23.06 24.89 24.63 24.52 22.10 19.59 14.98 15.71 10.20 12.09 9.03 3.03 3.49 6.17 7.85 11.77 14.37 13.09 10.51 14.73 14.08 17.53 21.33 22.17 22.89 21.43
51.84 51.46 50.78 49.88 49.09 47.75 46.75 45.46 45.15 44.19 45.08 43.60 42.80 42.04 40.06 39.61 37.34 32.27 32.71 35.90 34.53 27.68 26.10 13.58 15.41 17.68 20.89 17.88 16.23 23.69 20.76 21.44 20.94 18.43 14.77 10.74 9.96 7.75 0.50 2.99 1.77 4.43 6.54 8.43 11.52 13.37 13.83 15.90 17.72 20.20 20.99 20.20 18.50 16.86
51.36 50.89 50.06 49.10 47.66 46.88 45.78 44.87 43.90 44.85 42.84 42.39 42.25 40.18 35.36 32.91 30.59 29.18 33.91 32.83 30.18 26.11 17.17 15.38 12.31 9.92 18.94 17.84 17.14 16.35 21.25 13.06 19.89 12.45 13.24 13.16 9.15 1.71 4.34 1.05 1.07 2.59 3.08 4.24 10.27 11.13 13.00 16.14 17.21 17.93 18.87 16.10 16.71 16.76
50.29 49.42 48.60 47.23 46.56 45.47 44.98 43.82 44.63 42.86 42.13 41.38 36.06 31.90 26.01 29.63 35.73 33.91 28.71 25.42 21.88 20.53 19.94 13.44 15.91 11.08 14.15 15.39 14.84 12.43 16.82 12.41 6.51 14.64 14.28 8.24 5.04 1.96 0.20 0.68 1.88 1.78 2.46 4.27 5.29 5.17 11.15 12.97 15.46 16.32 17.00 18.24 17.50 17.45
48.96 47.93 46.75 45.88 45.06 44.53 44.02 44.25 42.96 42.23 39.68 34.23 30.17 25.29 28.09 33.90 29.56 25.34 15.85 15.08 14.94 11.06 15.83 13.14 9.59 10.60 15.47 8.13 9.26 14.51 7.63 11.40 3.88 10.15 8.18 6.60 2.77 1.83 -0.42 0.61 1.45 1.95 2.96 5.13 10.81 14.11 15.72 16.95 15.98 16.18 16.33 15.53 13.37 16.91
47.40 46.41 45.35 44.89 44.08 44.76 44.04 43.01 42.53 35.80 33.46 33.11 29.02 28.76 26.90 24.86 21.33 14.67 10.98 11.41 10.98 11.59 12.36 10.67 10.28 11.35 12.42 15.26 8.55 12.90 5.94 8.16 1.29 12.40 5.77 -1.48 5.24 -0.75 -0.01 -0.24 1.23 1.89 3.47 5.00 7.59 12.56 15.76 18.94 17.66 18.35 17.08 16.45 16.93 17.82
45.93 45.19 44.67 44.11 44.89 44.09 43.08 42.51 39.91 37.59 32.84 29.58 26.73 21.22 22.00 17.22 12.52 8.70 6.07 7.62 7.06 11.47 10.94 9.64 7.83 11.85 14.19 15.16 8.03 6.82 4.79 5.67 14.87 4.33 2.38 5.38 0.44 0.49 -0.08 0.07 1.11 1.62 2.63 5.31 9.07 12.05 15.79 18.08 19.24 19.49 17.24 16.93 19.59 20.11
45.05 44.32 44.38 44.42 43.73 43.07 42.86 40.51 37.96 33.71 29.91 25.22 20.74 12.63 16.29 12.00 13.63 15.75 14.16 11.17 10.41 12.72 11.40 11.18 11.10 10.19 14.39 7.86 11.05 6.13 11.13 9.45 0.76 -1.15 -0.87 3.32 0.46 0.12 0.44 0.68 6.01 4.17 5.32 8.54 10.83 15.17 17.89 19.94 19.53 20.45 20.21 19.71 18.67 18.99
44.32 44.61 43.89 43.21 42.91 42.76 40.84 39.19 34.76 28.89 27.98 21.59 22.77 16.53 11.55 14.43 12.06 9.51 10.51 10.62 12.82 13.81 12.34 10.76 10.92 11.88 9.71 4.96 9.93 7.88 1.02 -1.96 5.76 3.56 5.70 4.81 3.69 4.75 6.91 9.26 9.83 11.65 11.75 13.61 14.96 17.16 18.79 19.73 19.54 18.62 19.12 18.62 19.37 20.39
44.22 43.07 40.79 43.05 42.40 41.15 37.84 33.44 28.70 26.84 22.53 19.88 17.13 14.40 14.76 15.19 8.21 8.33 10.15 9.28 14.10 13.25 14.31 13.80 4.45 -0.27 0.74 4.67 3.13 -2.28 0.09 -1.49 5.14 7.26 8.49 7.13 8.91 10.75 13.06 15.63 15.91 15.67 15.65 16.47 17.34 18.18 18.84 18.73 18.65 18.37 17.43 17.88 19.11 19.06
41.55 38.25 42.58 42.60 39.54 36.63 35.27 27.75 26.38 20.51 20.01 16.81 15.45 18.44 18.65 18.03 13.68 12.03 14.52 12.87 15.45 12.15 7.23 6.44 -3.92 -1.80 6.06 -1.09 -0.50 6.19 2.92 7.82 10.37 10.26 13.04 14.76 14.20 13.93 14.40 16.43 17.54 16.99 16.38 16.87 17.27 17.56 17.68 19.07 19.03 18.24 16.42 17.82 17.53 18.61
36.97 40.87 40.99 37.73 33.49 30.34 22.43 23.88 22.17 20.37 15.11 14.20 15.85 15.44 16.60 17.28 14.52 13.22 12.55 14.58 13.92 13.42 11.98 3.12 9.39 -2.08 -3.33 -4.88 1.35 7.47 7.80 9.31 13.23 13.86 15.20 14.90 14.40 14.38 16.46 15.40 16.95 16.65 16.45 17.02 16.88 16.70 16.49 16.66 17.54 17.74 17.99 17.32 15.89 17.83
37.24 35.68 36.85 36.63 31.25 26.33 21.18 18.03 19.68 14.93 12.33 14.82 15.43 16.30 16.03 14.32 14.97 14.45 13.85 14.79 16.10 17.40 10.38 4.28 -1.22 -2.45 3.89 6.80 5.53 7.49 9.31 12.55 11.52 13.03 13.63 13.17 13.56 14.05 15.72 16.44 16.33 15.33 15.72 15.72 15.31 15.31 15.41 15.84 15.83 17.79 17.57 18.18 17.91 18.86
38.83 37.81 35.83 33.90 31.75 22.96 17.49 15.53 19.39 16.34 12.72 13.76 15.96 14.41 14.10 13.27 13.48 13.48 13.61 15.13 15.39 11.33 2.47 1.21 3.88 6.08 7.10 8.07 9.72 10.98 13.38 14.88 13.55 11.40 11.82 12.94 12.61 13.35 15.65 15.35 14.47 15.24 14.57 14.80 15.51 17.69 15.05 15.31 15.90 16.61 19.68 19.43 17.89 17.54
31.47 30.30 29.66 24.48 19.57 15.01 13.08 13.08 10.90 12.47 13.23 10.67 12.47 13.52 9.28 12.55 11.25 9.27 9.73 15.85 9.28 3.96 2.64 7.95 6.12 7.86 6.81 8.36 12.70 14.52 13.90 13.83 12.52 12.19 12.33 12.04 13.45 14.12 14.74 14.90 14.14 14.15 12.67 12.93 11.71 13.26 17.63 14.14 14.43 14.90 16.05 18.00 18.52 19.02
27.66 30.37 24.22 24.77 17.21 13.94 9.37 8.71 10.64 11.49 9.86 7.97 8.41 11.04 6.92 4.21 4.26 5.90 12.03 6.06 4.25 5.98 7.83 5.88 6.85 8.63 8.83 6.77 9.19 11.97 14.11 14.90 15.20 14.89 18.96 17.71 13.37 13.49 14.59 14.94 13.61 9.51 10.16 11.83 13.14 13.73 14.14 14.86 14.74 14.19 14.82 17.14 18.41 18.21
29.12 25.96 21.89 21.66 15.11 12.78 4.93 8.21 7.36 5.91 6.30 5.53 4.84 4.06 1.66 0.59 1.34 6.28 -2.06 3.46 5.44 8.13 7.97 8.14 6.68 7.15 8.33 10.15 12.73 12.77 13.92 13.52 12.86 13.77 14.59 16.54 15.88 16.43 16.09 15.64 15.21 10.44 10.10 13.16 14.22 13.80 13.94 17.18 17.14 13.73 14.22 15.89 16.36 15.60
24.34 15.67 14.35 11.87 13.17 4.48 7.71 5.71 8.71 7.20 6.70 5.82 4.57 2.11 -1.47 -0.87 0.01 -5.12 -5.92 1.23 6.67 8.04 7.19 7.17 6.02 6.43 7.42 6.82 7.50 9.45 12.17 13.67 11.04 12.88 14.55 14.59 14.01 13.61 15.59 15.43 14.62 14.27 14.07 13.85 12.80 13.13 13.56 14.09 15.58 12.63 12.13 12.40 14.63 14.18
18.41 11.16 11.18 5.34 7.58 8.00 5.68 4.49 4.16 6.22 2.84 0.73 0.58 -2.51 -4.41 -4.41 -9.04 -9.34 -5.70 2.51 4.67 4.94 8.71 9.16 8.30 8.21 4.38 3.75 8.32 9.54 13.99 12.59 10.61 10.32 13.38 14.84 14.03 12.92 13.17 13.27 13.01 13.10 12.89 10.63 11.47 12.22 12.42 12.95 12.65 11.05 10.91 11.52 11.44 11.76
9.94 6.31 7.52 6.53 5.39 7.34 7.63 3.55 3.09 2.99 1.19 -3.80 -4.38 -6.55 -9.20 -7.26 -10.30 -6.21 1.28 3.41 3.85 5.03 4.99 5.45 5.30 5.64 6.64 9.65 6.84 7.09 9.52 11.93 11.95 12.28 13.96 15.35 14.72 13.25 11.74 9.98 9.17 10.27 12.48 11.42 11.10 10.88 11.16 11.88 12.11 10.58 9.87 12.01 16.58 10.39
4.45 3.59 7.50 11.28 9.17 7.95 5.52 5.32 5.55 3.08 -4.78 -2.77 -4.36 -7.64 -8.24 -9.80 -8.88 2.62 6.92 6.31 5.56 5.90 6.54 7.95 9.13 8.73 7.46 8.61 10.53 10.82 10.82 10.16 13.34 13.22 15.15 15.61 15.01 14.30 14.44 11.05 10.67 12.71 13.01 12.33 12.35 11.48 10.96 11.02 11.03 11.30 11.62 10.85 11.14 10.22
7.33 6.79 4.32 4.69 4.43 4.11 1.49 0.97 -1.96 -0.72 0.08 3.05 2.12 -8.30 -5.40 -2.17 2.32 6.84 6.51 5.25 3.19 1.35 0.71 1.98 4.14 5.47 5.19 6.14 6.14 6.26 6.19 6.57 9.65 10.92 12.05 11.48 12.00 12.23 11.43 11.25 11.81 17.99 11.65 10.96 10.20 11.15 11.97 11.63 11.06 11.21 10.38 9.63 7.73 6.95
4.00 6.57 7.48 -1.02 -1.59 -0.74 -1.52 0.89 1.71 2.96 5.13 3.49 -0.33 -0.81 0.58 6.13 4.01 3.89 6.30 3.84 -0.83 -1.65 -0.84 0.69 1.18 0.04 1.56 3.78 5.32 6.15 4.63 7.66 6.80 7.61 8.28 9.88 9.38 10.96 11.33 9.57 10.28 10.84 9.91 11.26 17.79 13.86 11.63 10.35 10.23 10.20 9.71 9.06 8.04 7.37
-0.29 2.40 -0.32 -6.86 -2.61 -1.26 -1.73 -2.84 -4.32 -4.53 -0.23 -0.97 -0.74 -0.61 1.69 2.46 3.64 3.49 2.07 -1.19 -2.27 -1.89 -2.34 -2.93 -3.29 -0.88 2.10 2.55 0.21 3.74 6.14 10.58 11.39 12.21 9.13 11.26 13.41 13.03 11.25 10.83 11.69 11.38 10.35 10.22 10.70 11.44 18.85 15.86 14.79 8.70 5.27 4.40 4.07 3.97
0.70 -1.37 -3.23 -2.67 -5.36 -7.64 -9.78 -9.63 -9.31 -4.47 -8.07 -10.81 -10.07 -8.76 -5.27 -3.06 0.42 1.52 -0.66 -2.35 -3.94 -7.53 -7.57 -7.73 -7.31 -5.84 -1.71 1.88 4.33 2.55 3.91 8.34 12.26 13.42 14.08 12.09 12.20 12.74 12.09 11.82 12.86 12.20 12.87 12.25 12.97 11.37 13.74 7.63 6.83 6.01 5.18 4.16 3.26 5.31
-3.50 -9.60 -6.42 -6.78 -8.53 -12.76 -12.96 -13.37 -13.51 -12.24 -13.04 -13.15 -11.48 -12.97 -11.32 -8.49 -6.33 0.63 -1.92 -6.11 -8.67 -7.80 -0.12 -2.29 -6.93 -2.12 -0.43 0.29 2.14 5.35 16.65 7.78 9.96 12.59 12.76 15.17 12.97 12.62 12.87 13.51 12.89 12.73 12.35 12.00 11.95 12.00 9.10 6.93 5.59 5.48 5.60 5.34 5.24 5.28
-15.43 -14.67 -14.96 -11.81 -12.21 -11.90 -11.83 -11.93 -11.67 -13.78 -13.51 -13.17 -10.75 -9.57 -9.94 -6.77 -4.90 0.55 -2.99 -4.13 -2.93 -3.31 -4.02 -4.73 -6.32 -6.95 -6.17 -5.93 -3.63 -0.26 11.83 7.76 9.97 19.01 19.57 19.87 19.33 15.99 12.84 13.00 13.02 12.76 12.21 11.77 11.69 11.23 9.46 7.64 6.81 6.48 5.96 4.70 3.56 2.98
MSLP
1017.10 1018.08 1019.12 1019.97 1021.01 1022.07 1022.94 1023.84 1024.66 1025.41 1026.13 1026.71 1027.15 1027.52 1027.83 1028.04 1028.28 1028.44 1029.30 1029.32 1029.40 1029.70 1029.89 1030.07 1030.09 1030.35 1030.64 1031.02 1031.30 1031.26 1031.30 1031.50 1031.40 1031.42 1031.67 1031.88 1031.52 1031.37 1031.43 1030.82 1030.86 1031.34 1031.31 1030.16 1029.45 1028.25 1028.12 1027.67 1027.23 1027.92 1029.16 1027.91 1027.06 1025.90
1016.11 1017.05 1018.22 1019.19 1020.19 1021.37 1022.50 1023.45 1024.21 1025.02 1025.87 1026.39 1026.86 1027.36 1027.72 1027.97 1028.24 1028.49 1029.19 1029.57 1029.65 1030.03 1030.51 1030.56 1030.42 1030.56 1030.71 1030.98 1031.37 1031.59 1032.03 1032.32 1032.54 1032.67 1032.91 1033.04 1032.72 1032.26 1032.31 1032.15 1032.07 1032.56 1032.92 1032.67 1031.95 1029.86 1029.26 1029.07 1029.15 1029.10 1029.02 1028.41 1027.21 1025.93
1015.26 1016.20 1017.24 1018.32 1019.46 1020.63 1021.95 1023.03 1023.91 1024.77 1025.61 1026.11 1026.58 1027.07 1027.56 1027.88 1028.09 1028.53 1029.19 1029.76 1029.87 1030.30 1030.65 1030.86 1030.74 1030.86 1030.71 1030.92 1031.11 1031.88 1032.01 1032.42 1032.95 1033.09 1033.41 1033.48 1033.29 1032.75 1033.17 1032.95 1032.94 1032.97 1033.12 1033.10 1032.23 1030.28 1030.06 1029.50 1029.48 1029.37 1029.28 1028.62 1027.52 1026.37
1014.30 1015.32 1016.28 1017.33 1018.62 1019.80 1021.01 1022.27 1023.38 1024.36 1025.30 1025.81 1026.38 1026.91 1027.45 1027.82 1028.35 1028.75 1029.38 1029.73 1029.94 1030.52 1030.87 1031.17 1030.98 1031.04 1031.10 1031.10 1031.28 1031.68 1032.22 1032.82 1033.15 1033.41 1033.74 1033.97 1033.79 1033.22 1033.51 1033.49 1033.79 1033.43 1033.50 1033.07 1032.31 1031.06 1030.47 1029.42 1029.83 1029.89 1029.04 1028.48 1027.60 1026.47
1013.21 1014.13 1015.12 1016.31 1017.49 1018.76 1020.36 1021.78 1023.07 1023.97 1024.90 1025.76 1026.17 1026.77 1027.41 1028.21 1028.77 1029.23 1029.69 1029.94 1029.92 1030.66 1030.89 1031.01 1031.22 1031.47 1031.40 1031.43 1031.81 1032.30 1032.65 1032.89 1033.30 1033.64 1034.03 1034.07 1033.96 1034.05 1033.84 1034.29 1034.42 1033.42 1033.74 1033.79 1032.86 1032.31 1032.24 1031.46 1030.70 1030.22 1029.63 1028.70 1027.66 1026.73
1012.29 1013.43 1014.29 1015.35 1016.82 1018.29 1019.87 1021.60 1022.96 1024.17 1024.92 1025.56 1026.08 1026.79 1027.53 1028.44 1028.95 1029.34 1030.12 1030.40 1030.23 1030.64 1031.01 1031.32 1031.67 1031.76 1031.95 1032.21 1032.48 1032.76 1032.85 1033.02 1033.25 1033.37 1033.62 1033.88 1034.62 1035.27 1035.24 1034.93 1033.93 1033.66 1033.79 1033.82 1033.44 1032.81 1032.53 1031.83 1031.13 1030.27 1029.78 1028.74 1027.83 1027.04
1011.32 1012.34 1013.61 1014.96 1016.21 1017.73 1019.45 1021.11 1022.63 1023.91 1024.95 1025.47 1026.29 1027.13 1027.95 1028.69 1029.36 1029.85 1030.10 1030.15 1030.36 1030.66 1031.12 1031.63 1031.79 1032.07 1032.26 1032.56 1032.66 1032.84 1032.99 1032.93 1033.26 1033.17 1033.75 1034.15 1034.99 1035.21 1035.50 1035.16 1034.66 1034.54 1034.42 1034.24 1033.77 1033.18 1032.43 1031.74 1031.47 1030.54 1029.68 1028.74 1028.07 1027.51
1010.51 1011.58 1012.93 1014.44 1015.97 1017.47 1019.11 1020.73 1022.54 1023.97 1024.69 1025.58 1026.74 1027.56 1028.27 1028.94 1029.65 1030.29 1030.85 1030.49 1030.49 1030.96 1031.41 1032.24 1032.25 1032.41 1032.42 1032.46 1032.60 1032.46 1032.71 1032.92 1033.02 1033.20 1033.96 1034.59 1035.42 1035.75 1035.56 1034.85 1034.87 1034.92 1034.70 1034.32 1034.07 1033.55 1033.06 1032.30 1031.48 1030.68 1030.08 1029.39 1028.51 1027.75
1009.42 1010.83 1012.40 1013.97 1015.78 1017.48 1019.17 1020.97 1022.71 1023.66 1024.71 1026.11 1027.11 1028.08 1029.01 1029.48 1030.01 1030.73 1030.84 1030.83 1030.96 1031.65 1031.96 1032.66 1032.90 1033.10 1032.87 1032.80 1032.69 1032.79 1032.76 1032.96 1033.30 1033.60 1033.80 1034.42 1034.89 1035.39 1034.65 1035.10 1035.18 1035.25 1035.26 1035.00 1034.24 1033.54 1032.79 1032.22 1031.48 1030.74 1030.09 1029.58 1029.05 1028.31
1008.93 1010.41 1012.01 1013.91 1015.63 1017.64 1019.32 1021.25 1022.59 1023.86 1025.33 1026.61 1027.89 1028.86 1029.91 1030.55 1030.40 1030.83 1031.16 1031.38 1031.93 1032.34 1032.63 1033.13 1033.68 1033.91 1033.93 1033.45 1033.26 1033.37 1032.86 1032.93 1033.21 1033.49 1033.85 1034.59 1034.34 1033.98 1034.74 1034.77 1035.15 1035.22 1035.24 1034.89 1034.39 1033.51 1032.77 1032.09 1031.53 1030.82 1030.34 1029.84 1029.35 1028.83
1008.56 1010.18 1012.07 1013.87 1015.74 1017.65 1019.52 1021.16 1022.74 1024.19 1025.81 1026.97 1028.15 1029.59 1030.89 1030.55 1030.71 1031.19 1031.92 1032.45 1032.92 1033.23 1033.34 1034.03 1034.36 1034.43 1034.49 1034.34 1034.07 1033.65 1033.67 1033.22 1033.77 1033.90 1034.33 1034.47 1034.67 1034.40 1034.61 1035.09 1034.99 1034.95 1034.73 1034.37 1033.89 1033.29 1032.67 1032.05 1031.48 1030.97 1030.50 1030.04 1029.53 1028.93
1008.66 1010.28 1012.13 1013.93 1015.89 1017.68 1019.65 1021.19 1022.52 1024.34 1025.49 1026.36 1027.99 1029.79 1030.72 1030.96 1031.39 1031.88 1032.73 1033.39 1033.47 1033.49 1034.02 1034.58 1035.06 1035.00 1034.90 1034.61 1034.67 1034.26 1034.43 1034.28 1034.25 1034.08 1034.91 1035.03 1034.11 1034.72 1034.80 1035.16 1035.15 1034.74 1034.48 1033.99 1033.37 1032.82 1032.23 1031.70 1031.22 1030.86 1030.53 1030.05 1029.50 1028.93
1009.42 1010.94 1012.68 1014.44 1015.99 1018.25 1019.94 1021.31 1023.07 1024.36 1025.45 1027.01 1028.15 1029.52 1030.17 1031.52 1031.80 1032.20 1032.79 1033.13 1033.49 1033.66 1034.31 1034.78 1035.22 1035.02 1035.13 1034.92 1034.95 1034.96 1035.01 1034.60 1034.40 1034.63 1034.45 1033.95 1034.31 1034.76 1034.79 1035.07 1034.89 1034.33 1034.07 1033.59 1032.97 1032.41 1031.86 1031.35 1030.90 1030.72 1030.45 1030.06 1029.52 1029.07
1010.60 1012.07 1013.71 1015.01 1017.02 1018.86 1020.21 1021.75 1023.16 1024.22 1025.18 1026.84 1027.78 1029.54 1030.14 1031.24 1031.24 1031.38 1031.91 1032.50 1033.13 1033.48 1034.18 1034.63 1035.06 1035.17 1035.06 1035.05 1034.88 1035.25 1034.76 1034.69 1034.61 1034.60 1034.21 1033.69 1033.82 1034.30 1034.47 1034.45 1034.38 1034.16 1033.58 1033.10 1032.53 1032.07 1031.63 1031.24 1030.98 1030.71 1030.40 1030.07 1029.72 1029.47
1011.91 1013.28 1014.77 1016.40 1018.05 1019.50 1021.06 1022.48 1023.47 1024.54 1025.60 1026.63 1027.52 1028.65 1029.91 1030.63 1031.46 1032.12 1032.38 1032.82 1033.40 1033.86 1034.41 1034.94 1035.27 1035.31 1035.52 1035.75 1035.37 1035.52 1035.43 1034.80 1033.91 1033.16 1032.91 1032.78 1033.22 1033.51 1033.70 1033.75 1033.53 1033.17 1032.88 1032.53 1032.16 1031.81 1031.47 1031.23 1031.06 1030.91 1030.59 1030.32 1030.05 1029.65
1012.97 1015.01 1016.03 1017.52 1019.19 1020.60 1022.17 1023.30 1024.59 1025.81 1026.71 1027.27 1028.09 1028.97 1029.59 1030.42 1032.13 1032.57 1032.60 1033.19 1033.49 1034.16 1034.51 1034.99 1035.60 1036.16 1036.00 1036.01 1035.85 1035.69 1035.05 1033.66 1032.61 1032.34 1032.18 1032.13 1032.47 1032.69 1032.75 1032.60 1032.59 1032.50 1032.33 1032.12 1031.88 1031.59 1031.33 1031.27 1031.17 1031.11 1031.02 1030.75 1030.42 1030.23
1013.83 1015.44 1016.79 1018.55 1020.28 1022.01 1023.20 1024.16 1025.67 1026.93 1027.26 1028.04 1028.82 1028.99 1029.02 1029.88 1031.00 1031.91 1032.20 1032.73 1033.27 1034.22 1034.70 1035.23 1035.90 1035.84 1036.06 1036.15 1035.66 1034.22 1033.25 1032.06 1031.89 1031.88 1031.69 1031.67 1031.71 1031.85 1031.88 1031.96 1031.99 1032.03 1031.94 1031.85 1031.73 1031.55 1031.48 1031.45 1031.29 1031.21 1031.14 1031.01 1030.82 1030.74
1014.94 1016.49 1018.08 1019.84 1021.08 1022.79 1025.28 1026.02 1026.69 1027.34 1028.24 1029.02 1029.33 1029.58 1030.09 1030.49 1031.31 1032.07 1032.42 1032.66 1033.39 1033.76 1034.47 1034.77 1034.78 1035.72 1035.63 1035.28 1033.71 1032.35 1031.54 1031.37 1031.24 1031.33 1031.27 1031.28 1031.38 1031.46 1031.50 1031.56 1031.61 1031.74 1031.74 1031.71 1031.76 1031.74 1031.71 1031.58 1031.44 1031.43 1031.33 1031.21 1031.18 1031.04
1015.61 1017.47 1019.02 1020.25 1021.13 1023.06 1025.91 1027.62 1027.54 1028.36 1029.55 1029.73 1029.89 1030.16 1030.69 1031.30 1031.92 1031.98 1032.55 1033.10 1033.22 1033.75 1034.56 1034.75 1035.05 1034.95 1033.59 1032.45 1031.63 1031.16 1031.09 1030.86 1031.05 1030.96 1030.99 1031.04 1031.20 1031.30 1031.31 1031.29 1031.49 1031.68 1031.77 1031.79 1031.83 1031.90 1031.93 1031.90 1031.80 1031.59 1031.58 1031.52 1031.31 1031.07
1017.13 1018.66 1019.90 1020.43 1021.07 1023.67 1026.54 1028.35 1028.40 1028.91 1029.80 1030.17 1030.48 1031.11 1031.73 1032.04 1032.39 1032.55 1033.02 1033.60 1034.07 1034.57 1034.89 1034.63 1033.56 1032.31 1031.62 1030.92 1030.62 1030.80 1030.41 1030.28 1030.61 1030.76 1030.76 1030.84 1031.04 1031.20 1031.20 1031.29 1031.48 1031.57 1031.76 1031.89 1031.86 1031.88 1032.02 1032.05 1031.92 1031.84 1031.72 1031.56 1031.42 1031.38
1018.78 1020.35 1020.80 1021.54 1023.92 1025.36 1027.62 1029.18 1029.81 1030.13 1030.13 1030.62 1031.62 1031.84 1032.76 1033.00 1033.17 1033.40 1033.62 1033.96 1034.73 1034.41 1033.51 1032.46 1031.93 1031.22 1030.51 1030.47 1030.49 1030.44 1030.25 1030.21 1030.34 1030.38 1030.28 1030.30 1030.57 1030.86 1031.05 1031.16 1031.37 1031.63 1031.86 1032.00 1031.97 1031.99 1031.73 1032.03 1032.11 1032.12 1031.89 1031.78 1031.81 1031.76
1019.74 1020.59 1021.97 1023.14 1024.97 1026.91 1029.06 1030.45 1030.29 1030.67 1030.96 1032.00 1032.40 1032.50 1033.22 1033.75 1034.23 1034.39 1034.26 1034.67 1033.95 1032.30 1031.77 1031.30 1031.27 1030.87 1030.79 1030.70 1030.42 1030.30 1030.04 1029.97 1030.03 1030.09 1029.82 1030.08 1030.48 1030.74 1030.93 1031.08 1031.41 1031.60 1031.79 1031.88 1031.90 1031.87 1031.92 1031.98 1032.13 1032.20 1032.16 1032.14 1032.05 1032.03
1019.77 1021.10 1022.98 1024.15 1026.02 1027.65 1030.76 1030.88 1030.73 1031.18 1031.89 1032.86 1033.18 1033.36 1034.18 1034.63 1035.18 1035.43 1035.14 1034.04 1032.48 1031.02 1030.94 1031.04 1030.95 1030.86 1030.90 1030.51 1030.13 1029.89 1029.83 1029.97 1030.10 1030.05 1030.05 1030.14 1030.29 1030.49 1030.67 1030.83 1031.06 1031.50 1031.69 1031.77 1031.86 1031.83 1031.87 1031.89 1031.98 1032.27 1032.28 1032.24 1032.20 1032.26
1020.97 1023.08 1024.73 1025.80 1026.96 1029.53 1030.58 1031.02 1030.97 1031.49 1032.11 1032.81 1033.33 1034.19 1034.98 1035.44 1035.93 1036.08 1035.23 1032.89 1031.03 1030.82 1031.08 1030.90 1030.91 1030.95 1030.80 1030.53 1030.09 1029.77 1029.78 1029.85 1030.08 1029.97 1029.88 1030.11 1030.27 1030.47 1030.61 1030.73 1030.91 1031.15 1031.31 1031.47 1031.81 1031.88 1031.93 1032.12 1032.16 1032.37 1032.57 1032.62 1032.48 1032.60
1022.50 1026.15 1026.53 1027.57 1028.29 1029.08 1030.07 1030.72 1030.98 1031.34 1032.38 1033.19 1034.00 1034.85 1035.71 1036.08 1036.19 1035.73 1034.16 1031.84 1030.91 1030.72 1030.56 1030.56 1030.60 1030.48 1030.40 1030.22 1029.66 1029.58 1029.48 1029.63 1029.90 1029.92 1029.80 1029.87 1030.05 1030.39 1030.65 1030.74 1030.89 1031.02 1031.19 1031.57 1031.84 1031.91 1031.97 1032.14 1032.41 1032.62 1032.74 1032.74 1032.67 1032.85
1024.31 1026.84 1027.24 1027.55 1028.49 1028.73 1029.43 1030.54 1031.08 1031.14 1031.89 1033.21 1034.39 1035.51 1035.97 1036.19 1035.99 1034.31 1032.17 1030.77 1030.43 1030.28 1030.32 1030.40 1030.25 1030.31 1030.08 1029.81 1029.72 1029.57 1029.47 1029.42 1029.69 1029.74 1029.55 1029.62 1029.77 1030.02 1030.31 1030.64 1030.82 1031.00 1031.05 1031.20 1031.52 1031.70 1031.85 1032.04 1032.35 1032.53 1032.55 1032.50 1032.58 1033.08
1025.76 1027.23 1027.76 1027.99 1028.44 1029.28 1030.28 1030.43 1030.16 1030.63 1032.01 1033.16 1034.40 1035.57 1036.07 1035.57 1033.93 1031.62 1030.07 1029.77 1030.15 1030.02 1029.85 1029.82 1029.73 1029.82 1029.70 1029.49 1029.31 1029.34 1029.05 1029.14 1029.32 1029.33 1029.23 1029.30 1029.45 1029.64 1029.88 1030.17 1030.19 1030.21 1030.41 1030.81 1031.06 1031.28 1031.50 1031.76 1032.09 1032.31 1032.40 1032.55 1032.71 1033.12
1027.03 1027.77 1028.32 1029.15 1029.33 1029.50 1029.80 1030.22 1031.05 1031.54 1032.22 1032.75 1033.74 1034.52 1034.08 1032.98 1031.24 1029.76 1029.59 1029.55 1029.78 1029.98 1030.02 1029.99 1029.60 1029.57 1029.39 1029.22 1029.19 1029.34 1029.45 1029.33 1029.43 1029.45 1029.42 1029.46 1029.45 1029.56 1029.65 1029.83 1029.91 1029.41 1030.32 1030.60 1030.82 1031.01 1031.19 1031.41 1031.69 1031.98 1032.29 1032.68 1033.15 1033.47
1028.03 1028.37 1028.57 1029.69 1030.12 1030.50 1030.97 1031.36 1031.74 1031.84 1031.92 1032.50 1033.05 1033.00 1031.82 1030.59 1029.71 1029.37 1029.48 1029.59 1029.71 1030.18 1030.47 1030.12 1029.71 1029.49 1029.48 1029.17 1029.02 1029.01 1029.13 1029.44 1029.53 1029.42 1029.27 1029.24 1029.34 1029.36 1029.39 1029.61 1029.79 1029.91 1030.26 1030.21 1029.99 1030.75 1030.90 1031.07 1031.30 1031.65 1032.09 1032.61 1033.16 1033.69
1029.50 1029.72 1030.23 1030.82 1031.46 1032.02 1032.44 1032.54 1032.87 1032.89 1032.75 1032.85 1032.89 1032.51 1031.80 1030.60 1029.40 1028.83 1029.27 1029.67 1030.13 1030.32 1030.12 1029.91 1029.81 1029.76 1029.81 1029.75 1029.52 1029.29 1028.93 1028.83 1028.78 1028.73 1028.66 1028.66 1028.49 1028.48 1028.81 1029.17 1029.46 1029.75 1030.07 1030.24 1030.16 1030.22 1030.10 1030.60 1031.02 1031.79 1032.47 1032.98 1033.42 1033.83
1030.53 1030.75 1031.22 1031.78 1032.39 1033.04 1033.44 1033.61 1033.56 1033.57 1033.65 1033.87 1033.79 1033.79 1032.90 1031.70 1029.85 1028.73 1028.95 1029.29 1029.77 1029.95 1030.09 1030.15 1030.06 1029.66 1029.64 1029.50 1029.25 1028.91 1028.84 1028.38 1028.18 1028.11 1028.12 1028.19 1028.31 1028.46 1028.63 1028.83 1029.09 1029.46 1029.71 1029.97 1030.13 1030.29 1030.43 1031.21 1031.68 1032.15 1032.59 1032.99 1033.38 1033.72
1031.54 1031.93 1032.22 1032.98 1033.36 1033.80 1033.97 1034.20 1034.36 1034.51 1034.42 1034.44 1034.29 1033.96 1033.43 1032.95 1031.81 1029.41 1028.73 1029.27 1029.61 1029.90 1029.71 1029.61 1030.04 1029.65 1029.06 1028.72 1028.43 1028.14 1027.77 1027.60 1027.51 1027.50 1027.57 1027.70 1027.95 1028.20 1028.35 1028.54 1028.88 1029.20 1029.53 1029.85 1030.11 1030.39 1030.82 1031.31 1031.78 1032.15 1032.49 1032.78 1033.11 1033.41
1032.71 1032.78 1032.94 1033.27 1033.90 1034.24 1034.40 1034.47 1034.48 1034.60 1034.39 1034.25 1033.95 1033.70 1033.58 1033.17 1031.89 1029.47 1028.52 1028.56 1028.50 1028.82 1029.06 1029.18 1029.03 1029.04 1029.04 1028.84 1028.69 1028.40 1027.88 1027.46 1027.19 1026.58 1026.56 1026.64 1026.92 1027.54 1028.07 1028.31 1028.57 1028.86 1029.19 1029.56 1029.89 1030.23 1030.69 1031.16 1031.57 1031.90 1032.21 1032.49 1032.87 1033.25
Wind_Speed
30 30 29 28 27 26 25 23 22 19 16 14 11 9 7 5 7 1 3 4 2 1 2 1 1 1 1 2 1 4 2 3 4 6 3 3 2 3 1 5 4 1 4 5 6 5 5 17 6 8 7 15 19 20
31 31 30 29 29 28 26 25 23 21 18 15 13 11 9 7 10 3 3 1 2 2 2 4 5 5 3 3 1 2 4 1 1 2 4 3 3 3 3 3 1 3 4 3 2 5 9 11 5 8 11 15 16 18
31 31 31 31 31 29 27 27 24 22 19 16 14 12 10 7 9 5 3 3 1 1 0 0 2 3 2 0 3 0 2 2 2 3 1 3 2 2 3 3 3 2 3 3 5 2 9 10 10 12 14 14 18 16
32 32 33 32 32 32 30 28 27 24 20 17 15 13 11 7 12 6 3 1 3 1 0 2 3 4 2 1 2 1 1 3 2 0 2 2 2 3 3 4 3 4 1 4 7 6 12 1 16 15 19 16 17 17
33 33 34 34 34 34 31 28 28 24 21 17 15 14 12 14 12 8 3 2 2 2 1 2 4 2 2 1 5 3 2 3 2 2 2 3 2 3 2 3 3 5 5 2 5 6 2 9 14 17 14 18 16 14
31 32 34 35 33 32 31 30 27 23 21 18 16 15 16 15 13 2 2 1 1 1 1 1 2 2 4 4 5 3 1 1 1 2 3 1 2 3 1 4 3 3 3 3 5 8 10 13 14 10 16 16 15 12
33 34 33 32 33 34 33 31 28 25 22 20 19 18 17 13 5 2 2 3 4 1 1 0 2 2 2 2 3 2 1 1 2 2 1 0 1 2 2 4 4 2 1 5 7 5 6 3 9 16 14 14 15 8
31 31 33 34 34 35 33 32 28 25 23 23 19 21 16 16 11 3 3 5 2 2 1 1 2 2 2 2 1 1 2 2 3 1 1 1 1 1 4 5 2 2 4 4 1 4 7 11 12 10 9 9 10 9
30 31 32 35 36 35 34 32 29 25 27 23 25 22 5 3 2 2 6 7 3 2 2 1 2 2 3 2 1 1 0 2 1 2 2 1 2 5 7 4 2 2 2 5 7 7 7 6 8 9 9 8 7 9
29 34 37 38 38 36 34 33 30 30 27 28 6 2 3 1 12 7 1 1 3 3 3 2 1 1 2 2 2 2 2 2 2 1 2 2 5 2 3 4 4 4 4 3 4 6 7 8 7 8 7 7 6 6
37 39 40 40 39 37 34 34 34 32 19 3 3 3 1 4 1 1 2 1 0 1 1 1 2 2 2 1 1 2 2 1 1 1 1 3 5 4 3 1 3 4 4 5 5 6 6 7 6 6 7 7 5 5
40 42 42 41 40 35 37 37 36 8 3 8 10 6 3 2 1 2 1 0 2 2 1 2 2 1 0 1 2 3 1 2 3 1 1 4 5 3 3 2 3 3 4 5 3 5 6 5 5 5 5 6 6 5
41 42 41 41 38 38 38 36 24 29 18 4 4 4 2 1 3 6 6 3 2 3 3 3 2 2 1 0 1 2 1 4 1 1 5 6 3 2 2 1 4 4 4 5 4 4 5 5 4 4 5 5 6 5
39 40 39 39 38 37 36 34 32 14 5 3 5 5 5 4 4 3 1 3 1 4 3 2 2 3 1 1 2 1 3 2 2 2 7 3 5 4 3 3 1 3 5 5 4 3 3 4 4 5 5 5 4 5
39 37 38 36 36 35 35 31 16 5 3 4 4 5 4 3 4 2 2 4 2 3 3 2 2 1 1 2 1 2 3 4 5 6 3 2 3 4 3 3 5 4 3 4 3 3 3 4 4 4 5 5 5 6
38 34 24 36 35 35 30 16 5 2 3 3 3 4 3 3 1 1 1 3 1 2 2 2 2 3 2 3 2 6 2 6 5 1 2 3 3 4 4 4 3 2 2 3 3 3 2 3 4 3 3 4 5 5
23 8 34 36 36 30 20 6 3 4 3 4 2 0 2 3 4 3 3 4 4 3 2 3 5 7 1 1 4 4 6 4 2 1 2 3 4 4 4 3 3 2 2 2 2 2 2 3 2 3 4 4 4 4
19 25 39 37 23 12 5 5 3 2 4 2 1 3 3 2 5 3 3 5 3 2 2 5 3 3 6 6 5 5 3 2 2 2 3 3 3 2 3 4 3 2 2 1 1 2 2 3 1 1 2 3 1 2
26 25 36 28 11 7 5 2 3 4 2 1 2 3 3 4 2 4 4 3 2 2 3 2 2 5 5 5 4 2 1 3 3 4 3 4 3 4 4 3 2 3 3 2 2 1 0 2 1 2 1 2 1 2
38 33 24 20 9 4 6 3 1 3 3 3 3 3 3 3 2 3 4 3 2 1 1 4 7 5 5 3 3 2 1 2 2 2 3 4 4 4 4 4 3 3 3 2 1 4 1 1 1 2 1 0 1 2
20 10 13 8 5 7 5 2 3 2 3 4 1 1 3 1 2 2 2 2 1 4 5 5 4 3 2 2 0 2 2 3 4 4 3 2 4 4 3 2 2 2 3 3 2 2 4 1 1 1 1 2 2 2
6 10 4 4 5 4 6 3 2 2 3 2 2 0 3 2 2 1 2 2 5 5 5 3 2 1 1 2 4 5 4 3 3 3 6 3 2 2 3 3 3 3 2 2 2 2 2 2 1 1 0 0 1 1
12 5 4 3 6 6 1 2 3 3 4 4 1 3 1 2 2 2 2 4 5 4 2 2 2 2 2 3 2 3 4 4 3 4 4 3 3 2 3 3 4 3 3 2 2 2 2 4 4 2 0 1 2 2
10 7 5 4 4 3 1 2 2 3 3 2 3 3 1 2 1 1 5 4 4 2 2 3 3 2 2 1 2 2 3 4 2 2 3 3 3 3 3 3 3 2 2 3 3 2 3 2 3 2 1 2 3 3
7 3 3 4 2 4 4 3 2 2 3 1 3 1 1 2 1 3 5 5 2 3 3 3 3 3 3 3 2 2 3 3 3 3 3 3 2 3 2 2 3 3 3 3 4 4 4 3 2 3 3 3 4 4
5 2 3 3 1 3 4 4 6 5 4 3 1 2 1 2 1 8 5 4 3 3 3 4 4 2 3 3 3 2 3 3 2 2 2 4 4 4 5 5 3 3 4 3 4 4 5 4 4 5 3 4 9 6
4 1 2 2 2 3 3 2 3 5 4 5 4 4 3 3 7 6 2 2 2 3 2 1 2 3 3 3 2 2 2 3 3 2 1 2 2 3 3 4 5 3 6 6 5 5 6 6 5 4 4 2 3 5
3 2 6 4 2 1 4 3 4 5 4 3 5 4 9 9 7 4 4 2 2 1 1 2 3 2 2 3 2 3 2 2 3 2 2 2 1 1 1 2 2 6 4 5 5 4 4 5 6 6 5 5 3 1
3 1 3 4 3 2 2 4 5 2 1 4 5 4 5 4 3 2 2 2 2 2 1 2 4 2 2 2 1 2 3 4 5 5 5 3 2 3 4 3 2 2 3 2 11 8 6 5 5 5 5 5 4 3
1 2 4 2 4 3 2 1 1 1 1 1 1 3 3 4 4 1 2 2 2 4 4 3 1 2 3 4 3 3 2 4 4 4 3 3 3 2 5 5 4 4 3 3 3 3 10 6 7 4 5 4 4 4
1 1 3 2 2 1 1 1 2 1 2 1 1 2 4 5 6 3 3 3 2 2 1 2 3 3 4 4 5 4 4 4 7 7 4 2 2 2 3 4 4 5 5 4 4 3 6 4 4 5 5 6 6 7
2 2 4 3 2 3 1 2 1 1 1 1 2 0 4 3 5 4 3 4 3 1 6 4 3 5 5 4 3 3 8 2 4 6 7 5 4 4 4 4 5 5 6 6 5 5 7 7 5 5 5 6 6 6
2 2 3 3 3 1 2 3 3 3 2 1 3 3 2 3 7 5 3 3 4 4 4 4 3 2 3 3 4 4 8 2 6 9 10 12 13 9 5 5 5 6 8 6 6 6 8 7 5 5 6 6 6 6
Wind_Direction
186 185 184 184 181 180 179 180 182 178 172 178 174 171 166 163 161 123 79 12 46 28 112 132 113 67 125 214 311 312 21 337 1 24 11 333 327 282 33 316 342 18 339 341 342 358 351 16 1 43 303 318 323 322
187 185 185 184 180 179 177 179 179 170 178 177 177 178 175 176 170 188 108 72 6 84 84 12 16 38 7 11 101 298 161 212 351 10 20 330 338 323 331 294 234 8 161 226 239 290 355 350 46 358 353 331 323 325
189 186 183 182 179 176 174 178 176 166 177 177 178 179 177 182 173 176 101 129 85 55 205 240 158 122 111 178 270 230 65 131 78 167 209 262 266 65 295 300 326 47 172 245 340 37 358 310 15 357 346 330 324 323
189 187 183 180 178 174 173 176 169 170 171 179 177 175 171 163 130 125 107 159 75 74 231 144 150 110 16 238 215 251 145 48 78 102 246 229 248 96 269 224 168 205 66 277 264 319 335 20 352 339 328 332 323 327
191 188 183 181 178 174 170 169 164 169 174 174 174 162 150 128 114 90 81 48 34 112 285 107 115 95 46 116 123 71 115 181 196 216 217 239 304 36 280 49 258 174 192 183 259 348 308 293 316 316 332 323 325 331
190 187 184 181 177 168 162 162 161 170 163 182 154 144 132 133 131 142 123 54 54 63 92 196 122 86 43 57 69 62 186 225 267 233 236 75 222 102 325 257 265 83 102 154 259 322 302 293 295 325 319 314 324 342
189 186 184 177 169 162 156 157 159 163 174 153 137 135 131 119 59 50 37 123 126 55 91 330 196 127 138 195 168 175 153 205 240 218 229 15 178 148 248 248 217 172 273 273 284 316 304 334 310 310 312 323 322 324
188 183 177 170 163 153 152 149 157 164 156 131 135 130 119 111 125 84 7 69 54 95 25 133 232 128 355 251 163 177 220 187 199 311 32 217 93 203 258 246 202 229 277 282 27 303 277 291 293 306 317 317 326 333
186 176 165 157 150 146 145 149 157 149 130 139 127 113 87 44 123 113 113 84 64 93 143 149 196 206 350 227 188 335 176 294 108 242 204 81 229 233 225 180 198 234 193 260 298 289 287 301 310 314 322 324 332 338
166 158 151 147 144 142 144 152 142 132 137 120 86 113 117 71 117 141 67 68 24 349 19 94 14 205 16 357 288 43 174 259 286 160 120 199 256 225 196 183 173 238 246 284 338 339 329 322 318 322 325 321 319 326
154 148 145 142 140 140 149 141 136 136 116 93 117 76 62 138 141 14 81 83 73 50 125 74 72 108 335 83 347 107 277 275 326 251 140 270 274 235 196 193 252 252 259 271 244 271 277 284 307 321 324 318 307 328
146 143 141 139 139 145 141 141 139 112 122 125 108 108 126 152 85 119 169 35 223 194 127 142 153 110 332 353 78 321 278 42 256 242 44 274 254 232 154 245 283 291 305 297 282 294 309 313 319 318 310 317 322 333
142 140 139 140 139 141 142 138 121 121 112 88 81 95 153 131 163 179 196 240 180 163 165 163 146 163 177 273 4 57 244 239 25 34 234 228 230 210 203 262 299 302 312 301 306 313 316 324 337 331 334 329 340 356
138 137 139 135 138 141 136 131 135 134 101 129 149 140 203 175 232 177 132 117 152 97 119 137 107 155 190 105 222 128 236 34 313 251 241 251 219 210 206 241 242 288 291 283 289 307 332 353 347 352 351 349 353 8
136 135 133 134 138 137 134 137 123 54 104 117 136 184 185 84 44 52 80 97 46 112 115 76 52 124 128 78 236 26 346 258 215 234 226 205 189 179 202 221 232 245 258 292 311 326 353 354 2 3 357 356 4 17
126 125 133 135 133 128 125 117 68 84 55 89 80 121 114 99 130 184 114 102 180 116 52 37 117 70 240 170 136 218 211 231 249 227 217 155 187 207 212 211 224 239 277 292 303 311 352 5 2 337 1 9 19 19
122 116 138 129 121 122 118 81 74 39 90 99 101 331 95 67 135 146 148 139 151 128 159 138 106 195 63 99 246 212 211 220 180 249 208 211 201 199 187 202 221 218 236 278 295 327 330 318 331 28 32 7 13 16
114 128 123 122 113 91 46 23 88 104 92 78 169 104 59 50 101 104 97 133 130 185 136 196 112 133 190 196 234 234 209 182 171 231 230 201 208 188 190 221 193 223 224 205 328 309 301 306 46 31 5 348 11 16
124 125 126 130 113 99 105 40 8 102 74 87 83 54 73 93 37 92 108 130 54 56 96 66 134 202 223 216 215 239 182 171 212 215 221 211 210 207 205 186 183 200 214 193 228 255 247 340 351 5 345 332 16 28
122 122 118 85 74 92 97 57 274 122 120 122 73 78 54 70 107 100 110 124 139 166 44 215 218 216 201 227 165 191 180 159 181 221 236 215 206 208 210 193 206 204 174 191 199 208 215 242 325 347 294 354 68 45
94 108 69 64 57 58 71 76 69 46 112 83 81 97 91 118 110 130 134 156 95 219 239 229 232 246 141 117 41 279 248 189 217 206 249 234 187 183 191 172 166 174 193 211 202 240 222 190 152 324 14 55 35 345
102 88 80 49 84 79 79 359 77 78 70 74 107 104 117 131 137 116 46 165 234 229 212 217 224 146 158 219 233 220 237 256 241 269 257 232 168 183 199 190 177 205 190 195 201 176 173 161 168 224 82 133 85 79
94 63 59 59 80 50 27 276 81 13 111 159 142 90 103 103 72 356 248 228 249 236 205 192 177 190 233 294 270 261 225 221 237 224 233 225 182 192 197 185 181 168 181 189 175 152 150 205 230 149 281 139 126 52
45 57 62 65 63 117 173 68 93 104 96 153 134 135 144 120 97 80 251 247 233 151 189 218 168 228 238 274 252 227 224 201 225 257 196 163 179 196 201 195 168 174 178 148 158 160 137 174 196 125 168 195 143 130
85 9 86 63 21 120 114 125 92 96 115 170 110 109 188 106 109 230 237 265 226 228 209 184 187 207 206 251 266 237 201 156 187 212 204 167 137 115 164 180 184 177 143 141 174 178 168 144 154 176 185 177 152 144
86 340 81 134 152 125 152 129 182 164 116 100 126 102 85 103 83 243 234 225 225 198 193 188 191 199 246 207 227 239 226 180 167 211 204 185 183 183 186 186 190 223 194 174 163 176 170 167 180 185 186 207 184 142
115 148 69 16 82 124 114 64 55 98 126 159 168 158 120 182 242 246 253 219 180 217 187 199 189 191 210 238 216 190 141 152 174 175 80 173 176 180 184 184 200 216 164 173 174 172 175 173 176 185 163 91 107 147
110 160 155 185 110 345 116 80 118 171 180 175 121 177 181 198 233 233 202 217 165 143 223 256 239 235 225 236 198 131 86 101 97 86 69 33 33 164 157 139 168 177 155 158 160 158 165 170 171 170 159 154 137 88
78 27 97 65 40 47 167 164 188 177 111 151 163 212 235 236 233 217 225 171 129 101 311 277 283 214 286 296 250 174 152 154 163 193 219 227 195 232 189 176 201 128 139 174 177 169 162 157 157 157 148 139 130 126
92 357 87 90 132 198 211 27 136 312 7 107 323 318 289 270 250 192 139 140 163 214 219 198 241 151 208 185 220 259 229 198 205 204 195 221 209 165 162 172 170 156 154 146 139 167 173 144 132 97 114 121 131 140
37 52 75 71 143 231 168 318 333 360 26 12 344 177 261 300 306 254 180 189 165 118 91 270 268 221 202 216 199 194 252 233 219 219 205 153 143 157 166 169 159 154 158 151 152 151 143 121 139 150 157 158 182 167
32 110 128 118 259 277 36 72 127 111 314 19 277 351 318 350 279 275 204 123 112 177 243 214 207 256 229 229 235 237 231 206 189 208 210 213 178 180 165 157 151 155 158 158 152 151 150 154 159 173 177 179 180 173
51 41 28 79 42 16 292 85 25 340 357 292 268 199 226 213 248 275 279 201 173 180 199 213 224 243 251 249 261 279 262 247 237 234 228 220 203 185 166 163 163 163 162 164 162 161 164 158 169 175 178 181 184 184